Probability
0 0 0 0 0 0 0 0 0 0 0 0 0 0 0 0 0 0 0 0 0 0 0 0 0 0 0 0 0 0 0 0 0 0 0 0 0 0 0 0 0 0 0
0 0 0 0 0 0 0 0 0 0 0 0 0 0 0 0 0 0 0 0 0 0 0 0 0 0 0 0 0 0 0 0 0 0 0 0 0 0 0 0 0 0 0
0 0 0 0 0 0 0 0 0 0 0 0 0 0 0 0 0 0 0 0 0 0 0 0 0 0 0 0 0 0 0 0 0 0 0 0 0 0 0 0 0 0 0
0 0 0 0 0 0 0 0 0 0 0 0 0 0 0 0 0 0 0 0 0 0 0 0 0 0 0 0 0 0 0 0 0 0 0 0 0 0 0 0 0 0 0
0 0 0 0 0 0 0 0 0 0 0 0 0 0 0 0 0 0 0 0 0 0 0 0 0 0 0 0 0 0 0 0 0 0 0 0 0 0 0 0 0 0 0
0 0 0 0 0 0 0 0 0 0 0 0 0 0 0 0 0 0 0 0 0 0 0 0 0 0 0 0 0 0 0 0 0 0 0 0 0 0 0 0 0 0 0
0 0 0 0 0 0 0 0 0 0 0 0 0 0 0 0 0 0 0 0 0 0 0 0 0 0 0 0 0 0 0 0 0 0 0 0 0 0 0 0 0 0 0
0 0 0 0 0 0 0 0 0 0 0 0 0 0 0 0 0 0 0 0 0 0 0 0 0 0 0 0 0 0 0 0 0 0 0 0 0 0 0 0 0 0 0
0 0 0 0 0 0 0 0 0 0 0 0 0 0 0 0 0 0 0 0 0 0 0 0 0 0 0 0 0 0 0 0 0 0 0 0 0 0 0 0 0 0 0
0 0 0 0 0 0 0 0 0 0 0 0 0 0 0 0 0 0 0 0 0 0 0 0 0 0 0 0 0 0 0 0 0 0 0 0 0 0 0 0 0 0 0
0 0 0 0 0 0 0 0 0 0 0 0 0 0 0 0 0 0 0 0 0 0 0 0 0 0 0 0 0 0 0 0 0 0 0 0 0 0 0 0 0 0 0
0 0 0 0 0 0 0 0 0 0 0 0 0 0 0 0 0 0 0 0 0 0 0 0 0 0 0 0 0 0 0 0 0 0 0 0 0 0 0 0 0 0 0
0 0 0 0 0 0 0 0 0 0 0 0 0 0 0 0 0 0 0 0 0 0 0 0 0 0 0 0 0 0 0 0 0 0 0 0 0 0 0 0 0 0 0
0 0 0 0 0 0 0 0 0 0 0 0 0 0 0 0 0 0 0 0 0 0 0 0 0 0 0 0 0 0 0 0 0 0 0 0 0 0 0 0 0 0 0
0 0 0 0 0 0 0 0 0 0 0 0 0 0 0 0 0 0 0 0 0 0 0 0 0 0 0 0 0 0 0 0 0 0 0 0 0 0 0 0 0 0 0
0 0 0 0 0 0 0 0 0 0 0 0 0 0 0 0 0 0 0 0 0 0 0 0 0 0 0 0 0 0 0 0 0 0 0 0 0 0 0 0 0 0 0
0 0 0 0 0 0 0 0 0 0 0 0 0 0 0 0 0 0 0 0 0 0 0 0 0 0 0 0 0 0 0 0 0 0 0 0 0 0 0 0 0 0 0
0 0 0 0 0 0 0 0 0 0 0 0 0 0 0 0 0 0 0 0 0 0 0 0 0 0 0 0 0 0 0 0 0 0 0 0 0 0 0 0 0 0 0
0 0 0 0 0 0 0 0 0 0 0 0 0 0 0 0 0 0 0 0 0 0 0 0 0 0 0 0 0 0 0 0 0 0 0 0 0 0 0 0 0 0 0
0 0 0 0 0 0 0 0 0 0 0 0 0 0 0 0 0 0 0 0 0 0 0 0 0 0 0 0 0 0 0 0 0 0 0 0 0 0 0 0 0 0 0
0 0 0 0 0 0 0 0 0 0 0 0 0 0 0 0 0 0 0 0 0 0 0 0 0 0 0 0 0 0 0 0 0 0 0 0 0 0 0 0 0 0 0
0 0 0 0 0 0 0 0 0 0 0 0 0 0 0 0 0 0 0 0 0 0 0 0 0 0 0 0 0 0 0 0 0 0 0 0 0 0 0 0 0 0 0
0 0 0 0 0 0 0 0 0 0 0 0 0 0 0 0 0 0 0 0 0 0 0 0 0 0 0 0 0 0 0 0 0 0 0 0 0 0 0 0 0 0 0
0 0 0 0 0 0 0 0 0 0 0 0 0 0 0 0 0 0 0 0 0 0 0 0 0 0 0 0 0 0 0 0 0 0 0 0 0 0 0 0 0 0 0
0 0 0 0 0 0 0 0 0 0 0 0 0 0 0 0 0 0 0 0 0 0 0 0 0 0 0 0 0 0 0 0 0 0 0 0 0 0 0 0 0 0 0
0 0 0 0 0 0 0 0 0 0 0 0 0 0 0 0 0 0 0 0 0 0 0 0 0 0 0 0 0 0 0 0 0 0 0 0 0 0 0 0 0 0 0
Wind_Speed
9 8 8 8 7 7 6 6 4 4 3 3 3 3 3 3 2 2 2 2 3 2 2 2 2 3 3 3 3 3 3 3 3 2 1 1 1 1 1 0 1 2 2
8 8 8 8 8 8 8 7 6 5 4 3 3 3 3 3 2 2 2 2 2 1 1 1 2 2 3 3 3 3 3 3 3 2 1 1 1 1 1 0 0 1 2
8 8 9 9 9 9 9 8 8 7 7 6 6 5 4 4 3 2 1 1 1 2 2 3 3 3 3 2 3 3 3 3 2 2 1 0 1 1 1 2 2 1 0
7 8 8 8 8 8 8 8 8 8 8 8 7 6 5 4 4 3 2 1 0 1 2 3 4 4 4 4 3 3 3 3 2 2 1 0 0 1 1 1 2 2 2
7 7 7 7 7 7 8 8 8 8 9 8 8 8 6 5 5 4 2 1 1 1 1 1 3 4 5 5 3 4 4 3 3 2 2 1 1 1 1 1 2 2 3
6 6 6 6 7 7 7 7 8 8 8 8 9 8 8 7 10 9 4 2 2 2 2 1 1 2 4 5 6 7 6 5 4 3 2 2 1 1 1 1 2 2 2
6 6 6 6 6 6 6 7 7 7 7 8 8 8 8 10 14 11 9 4 3 3 2 2 1 2 4 4 5 7 5 5 5 5 4 2 2 2 3 2 2 3 2
5 5 6 6 6 6 6 6 6 5 6 6 7 8 8 11 16 13 10 5 4 4 3 2 1 2 3 5 5 5 5 4 4 4 4 3 2 3 3 3 4 4 3
4 5 5 5 5 6 6 5 5 5 6 6 6 8 8 10 15 14 10 4 4 5 5 5 4 3 4 6 6 6 5 4 6 8 7 7 7 7 5 4 3 3 3
3 3 4 5 5 5 5 4 4 4 5 5 6 6 7 8 14 15 11 3 4 4 4 5 6 5 4 5 5 6 6 4 4 5 6 8 7 8 8 4 3 3 3
2 3 4 5 5 5 4 4 4 4 5 6 6 6 7 9 12 14 12 4 3 3 3 3 4 6 5 5 5 3 5 6 5 6 5 5 5 5 5 5 4 3 3
3 4 5 5 4 4 5 5 5 5 6 6 6 6 6 7 9 12 13 10 6 3 3 3 3 5 7 6 5 6 10 8 5 5 5 4 4 4 4 6 7 7 6
4 4 4 5 5 4 4 5 5 5 5 5 5 6 6 6 8 14 13 12 9 4 3 4 6 8 7 6 8 9 7 5 5 5 4 3 2 3 3 4 5 6 8
4 3 3 3 4 4 4 4 4 4 5 5 5 6 6 6 7 7 6 6 7 5 4 6 9 10 8 7 7 6 4 4 4 4 4 3 2 3 3 2 3 3 4
3 3 3 2 2 2 2 2 2 2 2 3 3 3 5 6 8 10 7 5 4 4 3 4 5 5 5 5 5 5 4 4 4 3 4 4 3 3 3 2 2 3 4
2 2 2 1 1 1 1 2 2 1 3 5 5 4 3 5 8 11 12 13 12 9 6 5 6 6 6 5 5 5 5 4 4 4 4 4 4 4 4 3 3 4 4
2 2 2 2 2 1 1 1 2 3 4 5 8 8 7 8 10 11 10 11 13 11 7 6 6 5 5 5 4 4 4 3 3 4 4 4 4 4 4 4 4 4 4
2 3 3 2 2 2 2 1 1 1 2 3 4 7 8 9 11 12 10 7 8 8 5 5 5 5 5 4 4 4 4 4 4 4 4 4 4 4 4 4 3 3 3
1 1 2 2 2 2 2 2 1 0 0 1 2 3 5 6 9 11 9 5 4 5 4 4 4 4 4 4 4 4 4 4 4 4 4 4 3 4 4 3 3 4 3
1 2 2 2 2 2 2 2 2 1 1 1 1 1 2 3 3 4 4 3 3 3 3 3 3 4 4 4 4 4 4 4 4 4 3 3 3 3 4 4 3 3 2
1 2 2 2 2 3 3 3 3 2 2 2 2 2 1 1 1 1 1 2 2 2 2 2 2 3 3 3 3 4 4 3 3 3 3 3 3 3 3 3 3 3 3
1 1 1 2 2 3 3 3 3 3 3 3 2 1 2 2 1 1 1 0 0 0 1 1 1 1 1 2 2 2 3 3 2 2 3 3 3 3 3 3 3 2 3
2 2 2 2 2 3 3 3 3 4 4 4 3 2 2 2 2 2 2 2 2 1 1 1 1 1 1 1 1 1 1 1 0 1 2 3 3 3 3 3 3 3 2
2 3 3 3 2 2 3 3 4 4 4 4 4 4 4 4 4 4 3 3 2 2 2 2 2 2 2 1 1 0 1 1 1 0 2 4 4 3 3 2 2 3 3
2 3 3 3 3 3 3 4 4 4 4 4 4 4 4 4 4 4 4 4 4 3 4 3 2 2 3 3 2 2 2 2 2 2 2 3 4 4 3 3 3 3 3
3 3 3 3 3 3 3 4 4 5 5 5 5 5 5 5 5 5 5 4 4 4 4 4 4 5 4 3 3 3 3 2 3 4 4 4 4 4 4 3 4 3 4
Wind_Direction
11 12 16 14 15 22 27 24 23 33 45 57 65 75 82 89 100 109 120 126 122 129 142 160 190 184 175 173 172 169 168 159 194 248 271 297 310 320 12 177 201 202 228
9 14 18 17 20 24 24 22 25 32 36 46 60 68 64 64 70 87 102 106 124 155 176 177 212 194 183 174 170 172 170 171 175 208 265 320 333 354 16 63 123 180 208
10 16 20 20 22 23 24 25 31 33 35 39 47 50 47 47 49 50 85 114 156 180 195 201 202 185 190 179 175 169 165 164 161 162 193 358 0 22 52 56 66 50 46
12 20 22 19 20 21 25 30 33 36 39 38 38 37 34 37 36 25 39 54 103 219 211 203 196 189 190 181 173 165 151 142 140 146 156 125 46 24 74 78 65 48 34
16 20 14 13 19 24 27 28 31 35 38 34 36 31 24 26 24 17 7 8 339 297 268 216 208 201 191 176 165 160 148 138 136 138 135 113 87 76 88 93 96 84 55
17 15 11 17 22 23 25 28 31 30 29 33 30 26 25 22 22 29 26 14 6 345 327 323 263 202 188 173 164 158 154 149 152 144 139 142 152 145 116 97 110 105 75
18 15 15 20 24 20 26 31 28 25 28 31 25 22 18 13 24 28 33 32 26 17 355 337 331 106 126 123 128 121 121 137 148 148 144 159 158 163 137 107 93 94 91
21 18 16 21 24 23 31 31 23 22 26 25 23 19 16 14 21 26 31 32 34 32 25 16 35 72 104 126 117 104 89 77 103 112 124 130 128 129 127 123 119 102 82
24 22 20 25 30 30 32 26 19 28 30 25 19 19 17 8 15 23 28 19 30 28 27 36 49 61 90 122 122 117 103 82 82 97 99 99 99 102 111 104 99 94 75
19 34 38 41 43 37 33 29 24 32 27 19 20 17 15 9 11 19 23 21 23 18 21 24 34 45 72 115 127 131 130 124 112 92 78 69 68 68 68 79 109 108 107
59 65 55 49 51 43 38 32 30 29 27 20 14 8 11 10 9 17 22 24 16 19 23 15 11 34 64 94 115 127 140 132 115 106 94 78 66 60 54 54 60 91 107
91 80 65 51 48 47 47 38 31 27 29 20 12 8 5 3 7 12 22 29 31 32 22 6 8 47 70 83 98 118 122 117 109 102 95 86 78 71 66 65 68 67 67
100 92 78 66 53 47 50 44 35 30 30 21 14 8 359 358 4 13 18 24 29 36 30 43 56 62 66 66 83 103 108 110 111 106 105 93 84 87 86 78 69 71 64
114 112 96 80 60 45 45 46 45 34 28 20 13 5 357 358 3 2 2 8 18 30 38 54 63 65 64 64 68 71 79 100 111 113 110 95 82 81 74 74 82 70 65
121 127 115 99 85 53 41 36 41 23 12 7 351 347 353 358 359 12 21 16 15 28 46 49 49 51 57 60 63 65 68 80 88 93 103 102 95 87 69 56 68 66 76
135 147 154 151 136 88 10 347 335 332 10 28 24 22 355 8 16 27 33 34 37 47 60 56 53 52 55 59 67 68 63 70 80 95 98 100 103 99 87 65 69 83 91
165 173 175 184 194 203 236 327 337 343 14 36 31 35 42 34 32 29 33 41 40 46 59 56 54 52 53 54 57 65 66 59 73 87 93 95 98 97 96 91 88 86 85
167 182 181 199 209 211 216 226 249 342 346 340 1 29 44 44 40 33 31 45 43 42 47 50 49 47 49 54 56 61 66 64 67 76 82 87 95 101 99 95 92 97 93
173 197 192 201 209 205 200 192 185 181 328 325 338 359 21 34 40 37 39 51 54 45 41 42 39 41 43 47 52 57 63 65 68 75 77 84 93 100 100 97 96 95 87
264 257 210 198 203 192 189 186 186 193 229 285 311 319 348 29 31 21 31 44 56 52 46 46 40 42 44 46 49 55 61 61 64 70 75 80 85 94 106 106 103 99 88
295 291 272 209 210 206 203 204 201 199 216 237 254 258 190 117 94 57 46 48 61 64 59 57 52 46 45 47 54 61 67 65 65 78 87 91 98 96 96 98 100 104 112
311 285 267 248 237 221 213 206 199 204 216 226 237 248 159 141 165 181 200 213 169 144 132 111 86 65 56 58 65 76 79 75 67 81 100 105 106 107 107 105 105 107 115
311 298 286 270 252 241 225 208 204 207 214 217 215 209 196 197 202 208 214 215 203 197 187 165 145 125 91 76 78 113 124 118 91 100 125 124 121 118 116 120 127 125 128
293 293 286 282 266 241 228 222 215 213 213 214 212 209 208 206 206 209 209 205 201 204 201 196 196 195 180 168 169 183 206 237 250 185 142 139 133 126 121 122 126 129 128
272 281 280 275 269 255 241 233 226 221 218 215 212 209 208 203 205 205 199 197 198 206 211 206 207 207 206 200 205 226 247 247 210 170 140 135 138 137 136 137 137 133 135
251 264 267 266 264 256 245 240 235 228 223 220 214 208 204 201 202 200 193 191 196 205 211 210 211 210 210 213 226 240 252 245 209 172 149 140 143 146 143 138 139 136 137